QPF
0.00 0.00 0.00 0.00 0.00 0.00 0.00 0.00 0.00 0.00 0.00 0.00 0.00 0.00 0.00 0.00 0.00 0.00 0.00 0.00 0.00 0.00 0.00 0.00 0.00 0.00 0.00 0.00 0.00 0.00 0.00 0.00 0.00 0.00 0.00 0.00 0.00 0.00 0.00 0.00 0.00 0.00 0.00
0.00 0.00 0.00 0.00 0.00 0.00 0.00 0.00 0.00 0.00 0.00 0.00 0.00 0.00 0.00 0.00 0.00 0.00 0.00 0.00 0.00 0.00 0.00 0.00 0.00 0.00 0.00 0.00 0.00 0.00 0.00 0.00 0.00 0.00 0.00 0.00 0.00 0.00 0.00 0.00 0.00 0.00 0.00
0.00 0.00 0.00 0.00 0.00 0.00 0.00 0.00 0.00 0.00 0.00 0.00 0.00 0.00 0.00 0.00 0.00 0.00 0.00 0.00 0.00 0.00 0.00 0.00 0.00 0.00 0.00 0.00 0.00 0.00 0.00 0.00 0.00 0.00 0.00 0.00 0.00 0.00 0.00 0.00 0.00 0.00 0.00
0.00 0.00 0.00 0.00 0.00 0.00 0.00 0.00 0.00 0.00 0.00 0.00 0.00 0.00 0.00 0.00 0.00 0.00 0.00 0.00 0.00 0.00 0.00 0.00 0.00 0.00 0.00 0.00 0.00 0.00 0.00 0.00 0.00 0.00 0.00 0.00 0.00 0.00 0.00 0.00 0.00 0.00 0.00
0.00 0.00 0.00 0.00 0.00 0.00 0.00 0.00 0.00 0.00 0.00 0.00 0.00 0.00 0.00 0.00 0.00 0.00 0.00 0.00 0.00 0.00 0.00 0.00 0.00 0.00 0.00 0.00 0.00 0.00 0.00 0.00 0.00 0.00 0.00 0.00 0.00 0.00 0.00 0.00 0.00 0.00 0.00
0.00 0.00 0.00 0.00 0.00 0.00 0.00 0.00 0.00 0.00 0.00 0.00 0.00 0.00 0.00 0.00 0.00 0.00 0.00 0.00 0.00 0.00 0.00 0.00 0.00 0.00 0.00 0.00 0.00 0.00 0.00 0.00 0.00 0.00 0.00 0.00 0.00 0.00 0.00 0.00 0.00 0.00 0.00
0.00 0.00 0.00 0.00 0.00 0.00 0.00 0.00 0.00 0.00 0.00 0.00 0.00 0.00 0.00 0.00 0.00 0.00 0.00 0.00 0.00 0.00 0.00 0.00 0.00 0.00 0.00 0.00 0.00 0.00 0.00 0.00 0.00 0.00 0.00 0.00 0.00 0.00 0.00 0.00 0.00 0.00 0.00
0.00 0.00 0.00 0.00 0.00 0.00 0.00 0.00 0.00 0.00 0.00 0.00 0.00 0.00 0.00 0.00 0.00 0.00 0.00 0.00 0.00 0.00 0.00 0.00 0.00 0.00 0.00 0.00 0.00 0.00 0.00 0.00 0.00 0.00 0.00 0.00 0.00 0.00 0.00 0.00 0.00 0.00 0.00
0.00 0.00 0.00 0.00 0.00 0.00 0.00 0.00 0.00 0.00 0.00 0.00 0.00 0.00 0.00 0.00 0.00 0.00 0.00 0.00 0.00 0.00 0.00 0.00 0.00 0.00 0.00 0.00 0.00 0.00 0.00 0.00 0.00 0.00 0.00 0.00 0.00 0.00 0.00 0.00 0.00 0.00 0.00
0.00 0.00 0.00 0.00 0.00 0.00 0.00 0.00 0.00 0.00 0.00 0.00 0.00 0.00 0.00 0.00 0.00 0.00 0.00 0.00 0.00 0.00 0.00 0.00 0.00 0.00 0.00 0.00 0.00 0.00 0.00 0.00 0.00 0.00 0.00 0.00 0.00 0.00 0.00 0.00 0.00 0.00 0.00
0.00 0.00 0.00 0.00 0.00 0.00 0.00 0.00 0.00 0.00 0.00 0.00 0.00 0.00 0.00 0.00 0.00 0.00 0.00 0.00 0.00 0.00 0.00 0.00 0.00 0.00 0.00 0.00 0.00 0.00 0.00 0.00 0.00 0.00 0.00 0.00 0.00 0.00 0.00 0.00 0.00 0.00 0.00
0.00 0.00 0.00 0.00 0.00 0.00 0.00 0.00 0.00 0.00 0.00 0.00 0.00 0.00 0.00 0.00 0.00 0.00 0.00 0.00 0.00 0.00 0.00 0.00 0.00 0.00 0.00 0.00 0.00 0.00 0.00 0.00 0.00 0.00 0.00 0.00 0.00 0.00 0.00 0.00 0.00 0.00 0.00
0.00 0.00 0.00 0.00 0.00 0.00 0.00 0.00 0.00 0.00 0.00 0.00 0.00 0.00 0.00 0.00 0.00 0.00 0.00 0.00 0.00 0.00 0.00 0.00 0.00 0.00 0.00 0.00 0.00 0.00 0.00 0.00 0.00 0.00 0.00 0.00 0.00 0.00 0.00 0.00 0.00 0.00 0.00
0.00 0.00 0.00 0.00 0.00 0.00 0.00 0.00 0.00 0.00 0.00 0.00 0.00 0.00 0.00 0.00 0.00 0.00 0.00 0.00 0.00 0.00 0.00 0.00 0.00 0.00 0.00 0.00 0.00 0.00 0.00 0.00 0.00 0.00 0.00 0.00 0.00 0.00 0.00 0.00 0.00 0.00 0.00
0.00 0.00 0.00 0.00 0.00 0.00 0.00 0.00 0.00 0.00 0.00 0.00 0.00 0.00 0.00 0.00 0.00 0.00 0.00 0.00 0.00 0.00 0.00 0.00 0.00 0.00 0.00 0.00 0.00 0.00 0.00 0.00 0.00 0.00 0.00 0.00 0.00 0.00 0.00 0.00 0.00 0.00 0.00
0.00 0.00 0.00 0.00 0.00 0.00 0.00 0.00 0.00 0.00 0.00 0.00 0.00 0.00 0.00 0.00 0.00 0.00 0.00 0.00 0.00 0.00 0.00 0.00 0.00 0.00 0.00 0.00 0.00 0.00 0.00 0.00 0.00 0.00 0.00 0.00 0.00 0.00 0.00 0.00 0.00 0.00 0.00
0.00 0.00 0.00 0.00 0.00 0.00 0.00 0.00 0.00 0.00 0.00 0.00 0.00 0.00 0.00 0.00 0.00 0.00 0.00 0.00 0.00 0.00 0.00 0.00 0.00 0.00 0.00 0.00 0.00 0.00 0.00 0.00 0.00 0.00 0.00 0.00 0.00 0.00 0.00 0.00 0.00 0.00 0.00
0.00 0.00 0.00 0.00 0.00 0.00 0.00 0.00 0.00 0.00 0.00 0.00 0.00 0.00 0.00 0.00 0.00 0.00 0.00 0.00 0.00 0.00 0.00 0.00 0.00 0.00 0.00 0.00 0.00 0.00 0.00 0.00 0.00 0.00 0.00 0.00 0.00 0.00 0.00 0.00 0.00 0.00 0.00
0.00 0.00 0.00 0.00 0.00 0.00 0.00 0.00 0.00 0.00 0.00 0.00 0.00 0.00 0.00 0.00 0.00 0.00 0.00 0.00 0.00 0.00 0.00 0.00 0.00 0.00 0.00 0.00 0.00 0.00 0.00 0.00 0.00 0.00 0.00 0.00 0.00 0.00 0.00 0.00 0.00 0.00 0.00
0.00 0.00 0.00 0.00 0.00 0.00 0.00 0.00 0.00 0.00 0.00 0.00 0.00 0.00 0.00 0.00 0.00 0.00 0.00 0.00 0.00 0.00 0.00 0.00 0.00 0.00 0.00 0.00 0.00 0.00 0.00 0.00 0.00 0.00 0.00 0.00 0.00 0.00 0.00 0.00 0.00 0.00 0.00
0.00 0.00 0.00 0.00 0.00 0.00 0.00 0.00 0.00 0.00 0.00 0.00 0.00 0.00 0.00 0.00 0.00 0.00 0.00 0.00 0.00 0.00 0.00 0.00 0.00 0.00 0.00 0.00 0.00 0.00 0.00 0.00 0.00 0.00 0.00 0.00 0.00 0.00 0.00 0.00 0.00 0.00 0.00
0.00 0.00 0.00 0.00 0.00 0.00 0.00 0.00 0.00 0.00 0.00 0.00 0.00 0.00 0.00 0.00 0.00 0.00 0.00 0.00 0.00 0.00 0.00 0.00 0.00 0.00 0.00 0.00 0.00 0.00 0.00 0.00 0.00 0.00 0.00 0.00 0.00 0.00 0.00 0.00 0.00 0.00 0.00
0.00 0.00 0.00 0.00 0.00 0.00 0.00 0.00 0.00 0.00 0.00 0.00 0.00 0.00 0.00 0.00 0.00 0.00 0.00 0.00 0.00 0.00 0.00 0.00 0.00 0.00 0.00 0.00 0.00 0.00 0.00 0.00 0.00 0.00 0.00 0.00 0.00 0.00 0.00 0.00 0.00 0.00 0.00
0.00 0.00 0.00 0.00 0.00 0.00 0.00 0.00 0.00 0.00 0.00 0.00 0.00 0.00 0.00 0.00 0.00 0.00 0.00 0.00 0.00 0.00 0.00 0.00 0.00 0.00 0.00 0.00 0.00 0.00 0.00 0.00 0.00 0.00 0.00 0.00 0.00 0.00 0.00 0.00 0.00 0.00 0.00
0.00 0.00 0.00 0.00 0.00 0.00 0.00 0.00 0.00 0.00 0.00 0.00 0.00 0.00 0.00 0.00 0.00 0.00 0.00 0.00 0.00 0.00 0.00 0.00 0.00 0.00 0.00 0.00 0.00 0.00 0.00 0.00 0.00 0.00 0.00 0.00 0.00 0.00 0.00 0.00 0.00 0.00 0.00
0.00 0.00 0.00 0.00 0.00 0.00 0.00 0.00 0.00 0.00 0.00 0.00 0.00 0.00 0.00 0.00 0.00 0.00 0.00 0.00 0.00 0.00 0.00 0.00 0.00 0.00 0.00 0.00 0.00 0.00 0.00 0.00 0.00 0.00 0.00 0.00 0.00 0.00 0.00 0.00 0.00 0.00 0.00
MSLP
1009.28 1009.50 1009.84 1010.12 1010.64 1010.97 1011.17 1011.46 1011.93 1012.45 1012.71 1013.08 1013.46 1013.87 1014.20 1014.51 1014.83 1015.28 1015.64 1016.01 1016.49 1016.76 1016.96 1017.04 1017.06 1017.12 1017.14 1017.35 1017.75 1018.27 1018.65 1019.00 1019.13 1018.88 1019.03 1019.15 1019.45 1019.94 1020.16 1020.94 1020.81 1021.05 1021.32
1008.77 1009.08 1009.21 1009.49 1009.92 1010.37 1010.58 1010.82 1011.26 1011.60 1012.08 1012.52 1012.90 1013.26 1013.48 1013.73 1014.05 1014.47 1014.90 1015.30 1015.62 1015.89 1016.06 1016.27 1016.44 1016.80 1017.15 1017.50 1017.97 1018.46 1018.72 1018.94 1019.04 1019.08 1019.00 1019.10 1019.65 1019.84 1020.33 1020.67 1020.66 1020.71 1020.90
1008.43 1008.65 1008.87 1009.05 1009.35 1009.71 1010.07 1010.46 1010.90 1011.36 1011.67 1012.12 1012.46 1012.75 1013.05 1013.41 1013.75 1014.01 1014.21 1014.49 1014.77 1015.07 1015.53 1015.98 1016.45 1016.87 1017.33 1017.74 1018.21 1018.45 1018.77 1019.13 1019.26 1019.25 1019.38 1019.67 1019.85 1020.25 1020.26 1020.60 1020.94 1020.96 1020.67
1008.41 1008.36 1008.53 1008.77 1009.05 1009.45 1009.95 1010.39 1010.75 1011.08 1011.44 1011.79 1012.17 1012.48 1012.81 1013.11 1013.43 1013.69 1013.98 1014.36 1014.81 1015.21 1015.58 1016.09 1016.42 1016.83 1017.25 1017.72 1018.09 1018.49 1018.81 1019.16 1019.32 1019.44 1019.58 1019.98 1020.02 1020.32 1020.52 1020.52 1020.46 1020.42 1020.12
1008.74 1008.88 1008.92 1009.10 1009.33 1009.72 1010.13 1010.51 1010.98 1011.30 1011.57 1011.82 1012.25 1012.68 1013.04 1013.34 1013.58 1013.84 1014.25 1014.67 1015.06 1015.59 1015.95 1016.32 1016.60 1016.97 1017.30 1017.82 1018.19 1018.52 1018.79 1019.38 1019.47 1019.57 1019.57 1019.60 1019.86 1020.20 1020.01 1019.96 1019.98 1019.65 1019.56
1008.53 1008.70 1009.01 1009.34 1009.79 1010.22 1010.68 1011.07 1011.38 1011.74 1012.00 1012.23 1012.63 1012.97 1013.43 1013.86 1013.96 1013.91 1014.08 1014.72 1015.17 1015.53 1015.93 1016.24 1016.37 1016.77 1017.13 1017.51 1017.94 1018.11 1018.45 1018.83 1019.01 1018.89 1019.06 1018.92 1019.18 1019.41 1019.79 1020.08 1020.11 1019.96 1019.25
1008.50 1008.67 1009.08 1009.60 1010.12 1010.48 1010.81 1011.12 1011.61 1012.03 1012.42 1012.70 1012.97 1013.27 1013.63 1014.00 1014.16 1014.21 1014.31 1014.60 1014.96 1015.37 1015.75 1016.06 1016.31 1016.55 1016.92 1017.18 1017.76 1017.74 1018.08 1018.11 1018.29 1018.01 1018.08 1018.47 1018.92 1019.05 1019.48 1019.89 1020.06 1019.91 1019.72
1008.49 1008.59 1009.02 1009.72 1010.06 1010.44 1010.87 1011.20 1011.61 1012.06 1012.52 1013.04 1013.45 1013.80 1014.01 1014.36 1014.35 1014.44 1014.40 1014.73 1015.07 1015.42 1015.59 1015.91 1015.85 1016.42 1016.88 1017.03 1017.34 1017.75 1018.23 1018.44 1018.51 1018.35 1018.24 1018.42 1018.83 1019.24 1019.70 1020.03 1020.24 1020.11 1019.74
1008.26 1008.68 1008.65 1009.30 1009.97 1010.28 1010.57 1010.97 1011.45 1011.95 1012.50 1012.97 1013.39 1013.79 1014.12 1014.54 1014.57 1014.46 1014.57 1014.76 1015.05 1015.35 1015.58 1015.88 1016.22 1016.65 1016.85 1017.17 1017.48 1018.46 1018.64 1018.66 1018.44 1018.31 1018.35 1018.45 1018.66 1019.00 1019.28 1019.74 1019.91 1019.84 1019.41
1007.17 1007.51 1008.05 1008.35 1009.24 1009.87 1010.17 1010.41 1011.09 1011.56 1012.18 1012.79 1013.30 1013.60 1014.13 1014.28 1014.48 1014.61 1014.72 1015.16 1015.31 1015.68 1016.19 1016.28 1016.26 1016.46 1016.76 1017.28 1017.79 1018.54 1018.59 1018.62 1018.59 1018.55 1018.49 1018.51 1018.60 1018.71 1019.09 1019.60 1019.73 1019.74 1019.80
1006.28 1006.96 1007.64 1007.77 1008.51 1009.09 1009.76 1010.23 1010.92 1011.63 1012.29 1012.85 1013.22 1013.75 1014.37 1014.12 1014.45 1014.76 1014.71 1014.93 1015.20 1015.45 1016.15 1016.23 1016.23 1016.39 1016.69 1017.26 1017.74 1018.33 1018.26 1018.34 1018.44 1018.42 1018.43 1018.55 1018.73 1018.82 1018.74 1018.83 1019.12 1019.45 1019.35
1005.19 1006.09 1007.13 1007.61 1008.14 1008.95 1009.87 1010.26 1010.74 1011.54 1012.13 1012.77 1013.36 1014.03 1014.45 1014.34 1014.32 1014.42 1014.62 1014.92 1014.87 1015.26 1015.60 1015.59 1016.09 1016.60 1017.20 1017.44 1017.63 1017.77 1017.86 1018.15 1018.40 1018.57 1018.61 1018.63 1018.57 1018.59 1018.48 1018.54 1018.77 1018.90 1018.89
1005.10 1005.87 1006.61 1007.33 1008.00 1008.64 1009.03 1009.68 1010.29 1010.83 1011.39 1012.23 1012.95 1013.67 1014.20 1014.44 1014.37 1014.33 1014.73 1015.00 1015.47 1015.66 1015.31 1015.23 1015.98 1016.84 1017.64 1017.71 1017.91 1018.00 1018.15 1018.33 1018.24 1018.31 1018.27 1018.19 1018.23 1018.27 1018.31 1018.30 1018.45 1018.63 1018.59
1004.96 1005.65 1006.35 1006.97 1007.76 1008.61 1009.21 1009.53 1009.77 1010.11 1010.65 1011.27 1011.95 1012.76 1013.42 1014.05 1014.38 1014.42 1014.56 1015.08 1015.77 1015.57 1015.44 1015.88 1016.15 1016.94 1017.77 1017.93 1018.09 1018.33 1018.47 1018.48 1018.44 1018.27 1018.12 1017.99 1018.07 1018.07 1018.11 1018.16 1018.17 1018.06 1017.92
1004.93 1005.81 1006.32 1006.49 1007.18 1008.04 1008.81 1009.25 1009.51 1009.88 1010.23 1010.31 1010.92 1011.63 1012.30 1013.06 1013.54 1013.80 1014.26 1014.86 1015.27 1015.45 1015.78 1016.36 1016.55 1016.81 1017.43 1017.70 1018.15 1018.34 1018.57 1018.66 1018.50 1018.41 1018.20 1018.04 1018.05 1018.13 1018.09 1017.99 1017.81 1017.66 1017.57
1003.81 1005.02 1006.02 1006.50 1007.03 1007.52 1008.34 1009.55 1010.09 1010.31 1010.91 1010.73 1011.06 1011.36 1012.13 1012.36 1013.06 1013.88 1014.43 1014.99 1015.29 1015.54 1016.26 1016.63 1016.59 1016.91 1017.48 1017.96 1018.19 1018.57 1018.93 1019.22 1019.14 1018.85 1018.42 1018.16 1018.16 1018.17 1018.10 1017.93 1017.92 1017.67 1017.31
1003.04 1003.93 1004.95 1005.88 1006.80 1007.10 1008.00 1008.66 1009.71 1010.74 1011.24 1011.42 1011.50 1011.80 1012.09 1012.47 1013.30 1013.98 1014.57 1014.97 1015.38 1015.95 1016.28 1016.69 1016.77 1017.15 1017.83 1018.16 1018.48 1019.03 1019.41 1019.63 1019.42 1018.99 1018.67 1018.35 1018.20 1018.31 1018.15 1017.89 1017.77 1017.49 1017.14
1003.36 1003.70 1004.32 1005.31 1006.27 1007.24 1008.17 1008.75 1009.66 1009.99 1010.56 1011.21 1011.90 1012.17 1012.58 1013.10 1013.52 1014.05 1014.82 1015.47 1015.96 1016.34 1016.66 1017.07 1017.23 1017.67 1018.17 1018.64 1019.08 1019.74 1020.15 1020.20 1020.00 1019.86 1019.63 1019.44 1019.27 1018.90 1018.60 1018.37 1018.19 1017.93 1017.65
1003.58 1003.91 1004.21 1004.99 1006.16 1007.21 1008.34 1009.31 1009.94 1010.78 1011.22 1011.65 1012.32 1012.99 1013.38 1013.85 1013.98 1014.19 1015.04 1015.33 1016.09 1016.78 1017.08 1017.49 1017.82 1018.27 1018.60 1018.95 1019.62 1020.27 1020.44 1020.47 1020.40 1020.20 1020.11 1020.14 1020.04 1019.78 1019.51 1019.30 1018.97 1018.63 1018.34
1004.10 1004.26 1004.42 1005.24 1006.27 1007.39 1008.49 1009.49 1010.26 1011.39 1011.70 1012.15 1012.69 1013.51 1014.28 1014.70 1014.85 1015.32 1015.75 1015.94 1016.64 1017.25 1017.59 1017.98 1018.43 1018.77 1019.14 1019.62 1019.98 1020.44 1020.47 1020.52 1020.79 1020.78 1020.90 1020.73 1020.43 1020.45 1020.24 1019.97 1019.51 1019.01 1018.45
1004.72 1004.93 1005.00 1005.81 1006.44 1007.72 1008.74 1009.66 1010.76 1011.47 1011.93 1012.54 1013.16 1013.91 1014.21 1014.34 1015.05 1015.68 1016.20 1016.57 1017.18 1017.67 1017.96 1018.27 1018.71 1019.07 1019.59 1020.12 1020.43 1020.28 1020.45 1020.61 1020.92 1021.09 1021.10 1020.99 1020.91 1020.77 1020.66 1020.41 1019.90 1019.30 1018.99
1005.42 1005.73 1005.62 1006.41 1007.46 1008.44 1009.36 1010.57 1011.34 1012.20 1012.73 1013.25 1013.90 1014.11 1014.69 1015.22 1015.69 1016.12 1016.78 1017.52 1017.78 1018.13 1018.46 1018.49 1018.81 1019.20 1019.76 1020.17 1020.39 1020.45 1020.57 1020.88 1021.04 1021.12 1021.19 1021.08 1020.81 1020.54 1020.59 1020.26 1019.73 1019.40 1019.35
1006.56 1006.69 1007.20 1007.85 1008.40 1009.44 1010.66 1011.41 1012.10 1013.04 1013.37 1013.86 1014.36 1014.77 1015.36 1015.79 1016.15 1016.84 1017.30 1017.75 1018.29 1018.56 1018.86 1019.14 1019.41 1019.74 1019.96 1020.39 1020.58 1020.54 1020.62 1020.72 1021.01 1021.19 1021.25 1021.04 1020.60 1020.45 1020.53 1020.18 1019.91 1019.85 1019.83
1008.52 1008.62 1008.73 1009.29 1010.29 1011.10 1011.60 1012.40 1013.38 1013.76 1014.04 1014.48 1014.93 1015.45 1015.93 1016.25 1016.61 1016.93 1017.20 1017.87 1018.23 1018.57 1019.03 1019.37 1019.53 1019.65 1019.69 1020.04 1020.24 1020.45 1020.79 1020.85 1021.15 1021.40 1021.21 1020.82 1020.50 1020.23 1020.30 1020.25 1020.13 1019.87 1019.66
1010.53 1010.94 1011.32 1011.72 1011.93 1012.30 1012.87 1013.74 1014.28 1014.43 1014.77 1014.97 1015.39 1015.73 1016.06 1016.40 1016.73 1016.91 1017.29 1017.64 1017.94 1018.45 1018.82 1019.07 1019.38 1019.51 1019.61 1019.82 1019.95 1019.95 1020.25 1020.49 1020.69 1020.84 1020.69 1020.48 1020.18 1020.10 1019.97 1020.00 1019.86 1019.51 1019.06
1012.64 1012.91 1013.11 1013.30 1013.59 1013.91 1014.33 1014.64 1014.76 1014.91 1015.05 1015.32 1015.49 1015.85 1016.09 1016.29 1016.58 1016.85 1017.24 1017.50 1017.87 1018.18 1018.54 1018.64 1018.77 1018.93 1018.95 1019.04 1019.12 1019.29 1019.54 1019.63 1019.84 1019.91 1019.91 1019.69 1019.65 1019.42 1019.43 1019.73 1019.62 1019.39 1018.99
Thickness
5695 5694 5693 5692 5688 5686 5685 5683 5678 5673 5669 5664 5659 5654 5649 5645 5640 5634 5628 5622 5615 5609 5603 5599 5595 5590 5586 5579 5570 5560 5552 5544 5541 5539 5531 5527 5521 5513 5507 5496 5492 5484 5476
5689 5688 5688 5687 5684 5681 5681 5678 5673 5669 5664 5658 5654 5650 5646 5642 5637 5631 5626 5619 5613 5607 5601 5595 5590 5582 5575 5567 5558 5550 5543 5536 5533 5531 5527 5522 5513 5507 5499 5491 5486 5481 5473
5681 5681 5680 5680 5678 5675 5672 5668 5664 5660 5656 5651 5647 5643 5638 5633 5629 5625 5621 5616 5610 5603 5595 5586 5579 5571 5564 5556 5548 5541 5534 5527 5522 5519 5516 5509 5504 5497 5492 5483 5475 5470 5467
5668 5671 5670 5669 5667 5664 5661 5657 5654 5650 5646 5642 5638 5633 5630 5626 5621 5617 5611 5604 5596 5588 5581 5574 5568 5561 5554 5547 5540 5532 5526 5519 5511 5508 5505 5499 5495 5487 5480 5475 5472 5466 5462
5650 5651 5652 5652 5652 5650 5647 5643 5638 5635 5633 5629 5624 5619 5614 5611 5606 5601 5594 5587 5580 5573 5567 5561 5556 5549 5543 5536 5530 5523 5516 5507 5502 5500 5497 5492 5486 5479 5477 5472 5467 5464 5457
5638 5640 5640 5636 5631 5630 5626 5623 5621 5617 5615 5612 5607 5604 5598 5593 5589 5587 5584 5575 5569 5563 5557 5552 5547 5540 5534 5527 5521 5517 5510 5503 5498 5496 5491 5489 5483 5477 5468 5462 5455 5449 5449
5625 5624 5622 5617 5614 5613 5611 5609 5605 5602 5598 5596 5593 5589 5584 5579 5576 5572 5569 5566 5560 5554 5547 5542 5537 5532 5526 5522 5513 5510 5503 5501 5495 5494 5490 5484 5475 5469 5460 5451 5444 5441 5436
5610 5611 5607 5603 5602 5600 5597 5595 5592 5589 5585 5579 5575 5571 5568 5564 5562 5559 5557 5553 5548 5543 5538 5532 5531 5524 5517 5512 5507 5500 5493 5487 5483 5481 5478 5471 5463 5455 5446 5439 5432 5427 5424
5599 5595 5596 5593 5588 5587 5586 5584 5580 5575 5570 5566 5562 5558 5554 5549 5548 5547 5544 5541 5536 5531 5526 5522 5517 5511 5506 5501 5496 5483 5478 5474 5472 5470 5465 5460 5453 5445 5437 5428 5423 5417 5416
5595 5593 5590 5587 5580 5576 5575 5573 5568 5564 5558 5554 5550 5547 5540 5539 5536 5533 5531 5526 5522 5517 5510 5507 5505 5501 5496 5489 5481 5472 5469 5465 5462 5458 5454 5449 5443 5436 5426 5416 5410 5404 5396
5585 5581 5578 5579 5573 5569 5563 5561 5556 5551 5546 5541 5537 5531 5524 5527 5523 5519 5518 5515 5511 5507 5499 5496 5494 5491 5485 5478 5471 5463 5461 5457 5452 5448 5443 5437 5429 5422 5416 5409 5400 5391 5386
5581 5574 5567 5564 5562 5556 5548 5546 5543 5536 5531 5525 5520 5514 5510 5511 5511 5509 5506 5502 5501 5496 5491 5490 5484 5479 5471 5466 5461 5457 5454 5446 5440 5434 5428 5421 5416 5409 5404 5397 5388 5380 5373
5563 5561 5557 5552 5547 5542 5540 5534 5530 5526 5523 5515 5509 5503 5498 5495 5496 5496 5492 5488 5482 5479 5481 5480 5473 5463 5453 5450 5445 5442 5437 5432 5428 5422 5417 5412 5405 5398 5390 5384 5375 5367 5359
5544 5544 5542 5539 5533 5526 5522 5520 5519 5517 5512 5507 5501 5494 5487 5482 5480 5480 5478 5473 5465 5466 5467 5462 5458 5448 5438 5434 5431 5426 5421 5416 5411 5408 5403 5398 5391 5384 5377 5370 5363 5356 5349
5525 5521 5522 5524 5519 5512 5507 5505 5504 5501 5499 5498 5493 5487 5481 5475 5472 5471 5466 5459 5455 5453 5450 5443 5440 5436 5428 5424 5416 5411 5406 5400 5396 5392 5388 5383 5376 5368 5361 5354 5349 5342 5333
5518 5511 5507 5505 5502 5499 5493 5485 5481 5480 5476 5478 5475 5473 5465 5465 5460 5454 5448 5443 5440 5438 5430 5426 5425 5421 5414 5407 5402 5394 5386 5378 5374 5372 5371 5366 5359 5352 5345 5338 5329 5323 5317
5510 5504 5498 5492 5486 5486 5480 5476 5468 5459 5456 5456 5455 5453 5450 5448 5443 5437 5432 5429 5425 5419 5415 5410 5408 5403 5395 5390 5383 5374 5365 5358 5355 5354 5351 5347 5343 5335 5329 5322 5313 5306 5298
5488 5487 5484 5478 5473 5467 5461 5458 5452 5450 5446 5441 5435 5433 5430 5427 5425 5421 5414 5408 5403 5399 5395 5391 5388 5382 5375 5367 5359 5348 5340 5336 5333 5329 5325 5321 5315 5310 5304 5298 5290 5281 5272
5465 5466 5467 5463 5456 5450 5442 5435 5431 5425 5422 5417 5412 5408 5406 5403 5404 5403 5396 5394 5386 5378 5375 5370 5365 5359 5353 5347 5337 5326 5321 5317 5312 5308 5303 5295 5289 5283 5276 5269 5262 5254 5244
5443 5444 5445 5439 5433 5426 5419 5415 5410 5402 5400 5398 5396 5389 5381 5378 5381 5377 5373 5371 5365 5358 5354 5349 5343 5337 5330 5323 5316 5308 5304 5298 5290 5284 5276 5270 5266 5258 5251 5243 5237 5231 5225
5421 5422 5424 5420 5417 5409 5403 5397 5390 5385 5382 5379 5374 5367 5366 5369 5362 5357 5352 5349 5343 5338 5334 5329 5321 5315 5307 5299 5293 5291 5286 5279 5269 5261 5254 5248 5241 5234 5226 5219 5214 5208 5201
5398 5398 5402 5398 5391 5385 5380 5372 5367 5362 5358 5355 5351 5351 5347 5343 5339 5336 5330 5323 5321 5316 5311 5307 5301 5295 5287 5280 5274 5270 5264 5255 5248 5241 5233 5226 5222 5216 5206 5199 5194 5188 5178
5374 5375 5372 5369 5366 5360 5353 5348 5344 5337 5336 5334 5331 5328 5324 5321 5319 5312 5308 5303 5296 5292 5288 5282 5277 5271 5266 5260 5253 5248 5242 5235 5226 5219 5212 5206 5202 5195 5185 5180 5173 5164 5155
5345 5346 5347 5344 5337 5333 5329 5323 5315 5315 5314 5312 5309 5306 5303 5300 5297 5293 5289 5281 5276 5272 5265 5260 5255 5250 5247 5241 5235 5228 5219 5213 5205 5198 5193 5188 5181 5175 5166 5159 5151 5144 5136
5314 5312 5311 5309 5308 5306 5303 5296 5293 5292 5291 5291 5288 5287 5284 5279 5274 5271 5265 5261 5257 5251 5246 5240 5234 5229 5225 5220 5214 5209 5201 5193 5186 5179 5175 5169 5162 5154 5148 5140 5134 5128 5122
5282 5281 5281 5281 5279 5278 5276 5274 5274 5274 5273 5269 5265 5261 5259 5256 5253 5250 5245 5241 5236 5231 5226 5221 5216 5210 5206 5201 5197 5191 5184 5178 5170 5164 5157 5152 5145 5140 5133 5124 5117 5111 5106